Regional Weather Roundup
Issued by NWS Green Bay, WI

Home | Current Version | Previous Version | Text Only | Print | Product List | Glossary On
Versions: 1 2 3 4 5 6 7 8 9 10 11 12 13 14 15 16 17 18 19 20 21 22 23 24 25 26 27 28 29 30 31 32 33 34 35 36 37 38 39 40 41 42 43 44 45 46 47 48 49 50
000
ASUS43 KGRB 101211
RWRGRB

NORTH-CENTRAL AND NORTHEAST WISCONSIN REGIONAL WEATHER ROUNDUP
NATIONAL WEATHER SERVICE GREEN BAY WI
600 AM CST WED FEB 10 2016

WIZ005-009-010>012-018-019-101300-
NORTH CENTRAL WISCONSIN

CITY           SKY/WX    TMP DP  RH WIND       PRES   REMARKS
IRONWOOD       CLOUDY     5   1  85 N8        29.96R WCI  -8
MANITOWISH WTR CLOUDY     3  -3  77 N5        29.93R WCI  -7
ARBOR VITAE    FLURRIES   5  -1  79 NW5       29.92R WCI  -4
EAGLE RIVER    CLOUDY     3  -6  64 N10       29.91S WCI -12
LAND O LAKES   FLURRIES   3  -2  79 NW7       29.91S WCI  -9
RHINELANDER    CLOUDY     4  -3  73 VRB5      29.92R WCI  -5
PHILLIPS       PTCLDY     0  -5  79 NW6       29.96R WCI -12
ANTIGO         CLOUDY     4  -5  67 N14       29.91S WCI -14
TOMAHAWK       CLOUDY     3  -2  77 NW7       29.95R WCI  -9
MERRILL        CLOUDY     5  -2  73 NW6       29.96R WCI  -6
$$

WIZ013-073-101300-
NORTHEAST WISCONSIN

CITY           SKY/WX    TMP DP  RH WIND       PRES   REMARKS
IRON MOUNTAIN  CLEAR      1  -6  72 NW10      29.92R WCI -15
MARINETTE      PTCLDY     7  -6  56 NW10      29.94S WCI  -8
OCONTO         CLEAR      6  -4  65 NW6       29.97S WCI  -5
$$

WIZ017-030-035>037-045-101300-
CENTRAL WISCONSIN

CITY           SKY/WX    TMP DP  RH WIND       PRES   REMARKS
MEDFORD        PTCLDY    -2  -6  85 W6        29.95R WCI -14
WAUSAU         CLOUDY     8  -1  66 N9        29.95R WCI  -5
MOSINEE        CLOUDY     7   0  72 NW10G16   29.96F WCI  -8
MARSHFIELD     CLOUDY     4  -5  66 NW10      29.97R WCI -11
WISC RAPIDS    CLOUDY     5  -3  69 NW7       30.00R WCI  -7
STEVENS POINT  CLOUDY     6  -3  66 NW7       29.98R WCI  -6
WAUPACA        CLOUDY    11  -3  54 NW10      29.98S WCI  -2
SHAWANO        CLOUDY    10  -3  55 N10       29.97F WCI  -3
CLINTONVILLE   CLOUDY    10  -4  52 N10       29.97S WCI  -3
WAUTOMA        MOCLDY     7  -2  66 NW7       29.99S WCI  -4
$$

WIZ038-039-048-051-101300-
FOX VALLEY

CITY           SKY/WX    TMP DP  RH WIND       PRES   REMARKS
NWS GREEN BAY  CLEAR      5  -6  60 NW8       29.97R WCI  -8
APPLETON       MOCLDY     7  -2  66 NW15G22   29.93S WCI -11
OSHKOSH        CLOUDY     9  -3  58 N12       29.96S WCI  -6
FOND DU LAC    CLOUDY     9  -2  61 N6        29.96F WCI  -1
$$

WIZ022-050-052-101300-
EAST CENTRAL WISCONSIN

CITY           SKY/WX    TMP DP  RH WIND       PRES   REMARKS
EPHRAIM        FAIR       7  -3  63 NW13G24   29.90R WCI  -9
STURGEON BAY   CLEAR      7  -8  51 NW15      29.94S WCI -11
MANITOWOC      CLEAR      6  -3  66 NW10      29.96R WCI  -9
SHEBOYGAN      PTCLDY     7  -5  57 NW13      29.95R WCI  -9
$$

LMZ563-521-522-541>543-101300-
LAKESHORE

STATION/POSITION TIME  TEMP    WIND        PRES    VSBY  WAVE
                       AIR SEA DIR/SP/G                  HT/PER
                 (UTC) (F)     (DEG/KT/KT) (MB)    (MI)  (FT/S)
SHEBOYGAN LKSHOR 1200    9     320/ 15/ 18 1016.0R
KEWAUNEE LKSHORE 1100    7     320/ 11/ 18 1013.0R
ALGOMA MARINA    1111          320/ 12/ 15   N/A
CHAMBERS ISLAND  1140    8     300/ 12/ 20 1013.9R
MENOMINEE LKSHOR 1100    7     290/ 11     1012.8R
$$



USA.gov is the U.S. government's official web portal to all federal, state and local government web resources and services.